Location: *
(40.4000°N, 15.1200°E)
Time: 08:44:08
(UTC+00:00)

Daily predictions for brighter satellites

Satellite Brightness Start Highest point End
(mag) Time Altitude Azimuth Time Altitude Azimuth Time Altitude Azimuth
ATLAS CENTAUR Rocket 4.3 17:15:57 10° SW 17:21:14 41° SSE 17:44:53 10° E
Cosmos 1818 4.1 17:53:50 10° SW 17:59:13 67° NW 18:04:40 10° NNE
CZ-4 R/B 3.1 17:57:20 10° SSW 18:00:54 36° W 18:04:29 10° NNW
Cosmos 1953 2.4 17:57:02 10° S 18:01:00 81° W 18:05:01 10° N
USA 186 2.9 18:00:02 10° SE 18:02:48 25° ENE 18:05:29 10° NNE
STARLINK-67 4.3 18:04:54 10° NNW 18:06:51 19° NNE 18:08:49 10° ENE
Cosmos 2074 Rocket 4.1 18:01:05 10° N 18:07:20 61° E 18:13:32 10° SSE
SJ-11-01 4.3 18:07:40 10° SSE 18:12:20 71° ENE 18:17:04 10° N
USA 234 4.5 18:12:34 10° E 18:16:42 17° ESE 18:20:48 10° SSE
ATLAS 2AS CENTAUR R/B 3.0 18:11:19 10° NNW 18:18:48 62° NE 18:25:32 10° SE
ATLAS 5 CENTAUR R/B 1.4 18:15:53 10° SSW 18:19:55 77° ESE 18:24:24 10° NE
SeaSat 1 3.2 18:15:46 10° NNE 18:20:37 58° WNW 18:25:26 10° SW
H-2A R/B 2.0 18:16:51 10° SSE 18:21:59 65° ENE 18:27:00 10° N
HJ-1C 4.2 18:21:35 10° S 18:24:52 53° W 18:28:11 10° NNW
GPS 2-04 Rocket1 4.5 18:23:37 10° SSW 18:26:14 17° SSE 18:27:39 14° SE
COSMOS 2455 3.7 18:20:55 10° NNW 18:26:24 35° NE 18:30:46 15° ESE
Abrixas rocket 3.7 18:26:01 10° NW 18:28:29 23° NNE 18:30:32 12° ENE
Cosmos 1140 Rocket 3.5 18:24:12 10° S 18:29:16 58° ESE 18:34:20 10° NNE
Ariane Rocket 3.0 18:26:11 10° SSE 18:31:15 90° NE 18:36:20 10° NNW
Cosmos 1943 Rocket 4.3 18:30:58 10° NW 18:35:30 26° WSW 18:40:04 10° SSW
CZ-2C R/B 2.8 18:32:00 10° SSE 18:36:52 80° ENE 18:41:38 10° N
Cosmos 614 Rocket 4.3 18:31:57 10° SSW 18:37:10 71° WNW 18:42:23 10° NNE
MONITOR-E 3.6 18:38:15 14° SSE 18:40:26 87° ENE 18:43:04 10° N
APEX 4.1 18:34:39 10° NNW 18:40:57 77° ENE 18:45:13 15° SSE
STARLINK-29 4.4 18:39:51 10° WSW 18:42:51 37° NNW 18:45:53 10° NE
Cosmos 1190 Rocket 4.0 18:37:52 10° SSW 18:43:10 90° ESE 18:48:29 10° NNE
SJ-6B 2.9 18:39:21 10° SSE 18:43:26 72° ENE 18:47:34 10° N
Resurs 1-3 4.3 18:41:31 20° ESE 18:43:54 35° ENE 18:47:54 10° N
Aureole 1 Rocket 4.4 18:36:35 10° SSW 18:44:15 77° WNW 18:50:15 10° NNE
Cosmos 1300 3.3 18:43:12 19° SE 18:45:17 33° E 18:48:44 10° NNE
BREEZE-M DEB (TANK) 4.2 18:43:58 10° NW 18:49:21 40° NNE 18:50:46 23° ENE
Cosmos 2369 Rocket 4.3 18:48:12 10° NW 18:52:47 26° WSW 18:57:19 10° SSW
SL-24 R/B 3.6 18:49:45 10° NNE 18:53:38 69° E 18:57:15 10° S
CZ-2C R/B 3.6 18:51:52 10° NNE 18:56:34 75° ESE 19:01:07 10° S
Cosmos 2058 Rocket 3.1 18:53:08 10° S 18:57:38 85° W 19:02:10 10° N
SL-08 RB Rocket 3.7 18:56:19 13° SSE 19:00:25 89° WSW 19:05:03 10° NNW
Hubble Space Telescope 2.7 18:58:04 10° SW 19:00:30 15° S 19:00:38 15° S
STARLINK-1228 3.2 19:02:31 10° NW 19:05:23 46° NE 19:05:31 46° NE
Cosmos 1461 3.1 19:01:03 10° NNW 19:05:39 85° WSW 19:08:00 29° SSE
SL-4 R/B 4.3 19:05:35 10° NW 19:07:43 15° NNW 19:09:52 10° NNE
DMSP B5D2-2 4.0 19:02:32 10° NNE 19:07:46 71° ESE 19:12:59 10° S
Cosmos 921 Rocket 2.8 19:03:44 10° NNW 19:07:56 79° ENE 19:09:43 34° SSE
Cosmos 2341 Rocket 4.0 19:02:46 10° N 19:09:07 64° E 19:13:23 22° SSE
Cosmos 1340 Rocket 3.6 19:05:21 10° SSW 19:09:19 53° WNW 19:13:16 10° N
Cosmos 676 Rocket 4.0 19:07:06 10° SSW 19:12:23 84° WNW 19:17:40 10° NNE
COSMOS 2406 4.0 19:13:01 30° E 19:13:01 30° E 19:17:25 10° NE
STARLINK-1201 3.8 19:11:22 10° NW 19:14:27 37° NNE 19:14:33 37° NE
MetOp-A 4.1 19:13:31 21° SSE 19:17:15 88° WSW 19:22:39 10° NNW
ATLAS 5 CENTAUR R/B 4.3 19:11:43 10° SSW 19:17:17 22° SSE 19:18:54 22° SE
Resurs 01 Rocket 1.7 19:17:44 46° ESE 19:18:44 58° ENE 19:23:05 10° N
Cosmos 2218 Rocket 4.3 19:14:17 10° N 19:20:17 47° ENE 19:22:17 36° ESE
Cosmos 2058 3.9 19:18:03 10° NNE 19:21:10 31° ENE 19:21:10 31° ENE
Cosmos 220 Rocket 4.5 19:17:53 10° N 19:22:01 42° ENE 19:22:11 41° ENE
MOS 1 Rocket 3.6 19:18:55 10° NNE 19:24:24 88° W 19:29:49 10° SSW
Cosmos 1812 Rocket 3.7 19:25:20 50° E 19:25:20 50° E 19:29:21 10° NNE
CZ-2C R/B 2.5 19:20:27 10° NNE 19:25:39 88° ESE 19:30:54 10° SSW
BREEZE M DEB (TANK) 2.8 19:22:41 10° WSW 19:25:40 75° NNW 19:33:48 10° ENE
SPOT 3 Rocket 3.8 19:22:44 20° S 19:26:22 68° WSW 19:31:34 10° NNW
ARGOS 4.4 19:22:57 10° SSW 19:27:57 38° W 19:32:57 10° NNW
Cosmos 962 Rocket 4.5 19:23:47 10° N 19:29:56 81° W 19:34:09 21° S
Cosmos 1697 Rocket 4.3 19:28:07 10° N 19:32:09 19° NE 19:32:44 19° ENE
SL-8 Rocket 3.9 19:26:19 10° N 19:32:38 71° E 19:35:13 38° SSE
Iridium 2 3.8 19:33:27 61° NNE 19:33:27 61° NNE 19:36:45 10° N
Cosmos 2181 Rocket 3.9 19:28:02 13° S 19:33:37 81° E 19:39:49 10° N
Cosmos 1741 Rocket 3.9 19:41:05 56° SSE 19:41:56 66° ESE 19:47:13 10° NNE
Meteor 2-1 Rocket 4.2 19:41:06 46° SSE 19:42:48 67° E 19:48:41 10° NNE
BREEZE-M DEB (TANK) 3.8 19:41:36 10° WSW 19:45:56 52° WSW 19:45:56 52° WSW
Cosmos 2366 rocket 3.8 19:40:36 10° N 19:46:45 72° E 19:48:11 53° SE
Cosmos 1076 Rocket 3.7 19:42:41 10° N 19:46:20 59° NNE 19:46:20 59° NNE
SPOT 1/Viking Rocket 4.2 19:50:06 40° ENE 19:50:06 40° ENE 19:54:33 10° N
Cosmos 1959 Rocket 4.4 19:44:41 10° N 19:51:01 81° E 19:52:36 53° SSE
Cosmos 1656 4.1 19:45:53 10° N 19:51:18 44° ENE 19:51:23 44° ENE
Cosmos 1763 Rocket 3.8 19:46:46 10° N 19:51:29 49° NE 19:51:29 49° NE
Iridium 4 Rocket 3.7 19:56:07 10° N 19:59:06 46° N 19:59:06 46° N
USA 234 3.1 19:53:47 10° NE 20:00:21 76° SE 20:06:52 10° SW
Cosmos 1980 Rocket 4.0 19:58:27 10° N 20:02:02 18° NE 20:02:02 18° NE
Cosmos 1174 4.4 19:58:42 10° NNW 20:02:39 69° N 20:02:39 69° N
Cosmos 1892 4.1 19:59:55 10° N 20:02:13 34° N 20:02:13 34° N
ATLAS 2AS CENTAUR R/B 4.3 20:03:13 10° NW 20:09:10 28° WSW 20:13:00 17° SSW
COSMOS 2455 3.8 20:06:47 10° NW 20:12:21 40° WSW 20:13:57 34° SW
Spot 2 Rocket 3.8 20:22:15 63° WNW 20:22:15 63° WNW 20:26:58 10° NNW
ATLAS CENTAUR R/B 3.8 20:21:14 10° N 20:22:10 15° N 20:22:10 15° N
Cosmos 1821 Rocket 4.3 20:21:09 10° N 20:26:40 57° NE 20:26:40 57° NE
Terra 3.5 20:29:53 26° NNE 20:29:53 26° NNE 20:32:11 10° N
SPOT 5 4.5 20:31:40 25° N 20:31:40 25° N 20:33:33 10° N
Cosmos 2082 Rocket 4.2 20:34:09 17° NE 20:34:09 17° NE 20:35:25 10° NE
Cosmos 841 Rocket 4.3 20:25:48 10° NNW 20:29:32 44° N 20:29:32 44° N
Meteor 2-10 Rocket 4.2 20:33:51 51° N 20:33:51 51° N 20:37:55 10° N
Cosmos 1833 Rocket 3.8 20:39:02 35° NNE 20:39:02 35° NNE 20:42:13 10° NNE
ERS-1 Rocket 4.0 20:47:00 42° NNW 20:47:00 42° NNW 20:50:18 10° NNW
Resurs 01 Rocket 4.3 20:55:17 12° W 20:55:35 12° W 20:57:21 10° WNW
COSMOS 2406 4.5 20:54:52 30° W 20:56:40 38° WNW 21:01:57 10° N
CZ-4C R/B 3.3 20:54:57 10° NNW 21:01:49 54° NE 21:01:49 54° NE
Cosmos 1697 Rocket 3.9 21:11:00 10° NNW 21:14:29 38° NW 21:14:29 38° NW
SL-16 R/B 4.2 21:33:39 10° N 21:36:11 22° NNE 21:36:11 22° NNE
USA 234 4.4 21:37:06 10° NE 21:43:00 38° NNW 21:48:54 10° W
Cosmos 2322 Rocket 4.3 21:40:43 10° N 21:43:04 21° NNE 21:43:04 21° NNE
Cosmos 1980 Rocket 4.0 21:41:15 10° NNW 21:43:48 28° NNW 21:43:48 28° NNW
Cosmos 2082 Rocket 4.3 22:15:56 22° NNW 22:15:56 22° NNW 22:18:56 10° N
CZ-4C R/B 4.5 22:43:45 10° NW 22:47:00 25° WNW 22:47:00 25° WNW
Cosmos 2333 Rocket 4.4 23:40:35 10° NNW 23:42:25 21° N 23:42:25 21° N
Cosmos 2237 Rocket 4.4 23:42:50 10° N 23:46:25 20° NE 23:46:25 20° NE
SL-16 R/B 4.1 23:48:43 30° NE 23:48:43 30° NE 23:52:55 10° N
